CW5316 Weather Reports


time (UTC)temp
C
wind
direction
speed
KPH
gust
KPH
rain 1hr
cm
rain 24hr
cm
rain mn
cm
humidity
%
barometer
mb
20260507043041 10 0 0.0 0.0 0.00 0.00 0.00 94 1021.2
20260507042520 10 0 0.0 0.0 0.00 0.00 0.00 94 1021.3
20260507042021 10 0 0.0 1.6 0.00 0.00 0.00 94 1021.2
20260507041544 10 0 0.0 1.6 0.00 0.00 0.00 94 1021.4
20260507041021 10 0 0.0 0.0 0.00 0.00 0.00 94 1021.3
20260507040521 10 0 0.0 0.0 0.00 0.00 0.00 94 1021.3
20260507040035 10 0 0.0 0.0 0.00 0.00 0.00 94 1021.2
20260507035517 10 0 0.0 0.0 0.00 0.00 0.00 94 1021.0
20260507035021 10 0 0.0 0.0 0.00 0.00 0.00 94 1021.0
20260507034546 10 0 0.0 0.0 0.00 0.00 0.00 93 1020.9
20260507034021 10 0 0.0 0.0 0.00 0.00 0.00 93 1020.9
20260507033522 10 0 0.0 0.0 0.00 0.00 0.00 93 1020.8
20260507033039 10 0 0.0 0.0 0.00 0.00 0.00 93 1020.8
20260507032524 10 0 0.0 0.0 0.00 0.00 0.00 93 1020.8
20260507032021 10 0 0.0 0.0 0.00 0.00 0.00 93 1020.7
20260507031535 10 0 0.0 0.0 0.00 0.00 0.00 93 1020.7
20260507031024 10 0 0.0 0.0 0.00 0.00 0.00 92 1020.7
20260507030523 10 0 0.0 0.0 0.00 0.00 0.00 93 1020.6
20260507030035 10 0 0.0 0.0 0.00 0.00 0.00 92 1020.6
20260507025521 10 0 0.0 0.0 0.00 0.00 0.00 92 1020.6
20260507025021 10 0 0.0 0.0 0.00 0.00 0.00 92 1020.6
20260507024551 10 0 0.0 0.0 0.00 0.00 0.00 93 1020.5
20260507024021 10 0 0.0 0.0 0.00 0.00 0.00 93 1020.5
20260507023529 10 0 0.0 0.0 0.00 0.00 0.00 93 1020.5
20260507023041 10 0 0.0 0.0 0.00 0.00 0.00 92 1020.6
20260507022522 10 0 0.0 0.0 0.00 0.00 0.00 92 1020.5
20260507022022 10 0 0.0 0.0 0.00 0.00 0.00 92 1020.5
20260507021535 10 0 0.0 0.0 0.00 0.00 0.00 92 1020.6
20260507021025 10 0 0.0 0.0 0.00 0.00 0.00 92 1020.6
20260507020522 10 0 0.0 0.0 0.00 0.00 0.00 92 1020.5
20260507020043 10 0 0.0 0.0 0.00 0.00 0.00 92 1020.4
20260507015521 10 0 0.0 0.0 0.00 0.00 0.00 92 1020.4
20260507015021 10 0 0.0 0.0 0.00 0.00 0.00 92 1020.4
20260507014552 10 0 0.0 0.0 0.00 0.00 0.00 93 1020.4
20260507014021 10 0 0.0 0.0 0.00 0.00 0.00 92 1020.5
20260507013521 10 0 0.0 3.2 0.00 0.00 0.00 93 1020.4
20260507013045 10 0 0.0 3.2 0.00 0.00 0.00 93 1020.5
20260507012522 10 0 0.0 0.0 0.00 0.00 0.00 93 1020.5
20260507012023 10 0 0.0 0.0 0.00 0.00 0.00 93 1020.5
20260507011539 10 0 0.0 0.0 0.00 0.00 0.00 93 1020.4
20260507011021 10 0 0.0 0.0 0.00 0.00 0.00 93 1020.4
20260507010524 10 0 0.0 0.0 0.00 0.00 0.00 92 1020.5
20260507010039 10 0 0.0 0.0 0.00 0.00 0.00 93 1020.5
20260507005526 10 0 0.0 1.6 0.00 0.00 0.00 93 1020.7
20260507005022 10 0 0.0 3.2 0.00 0.00 0.00 93 1020.6
20260507004545 10 0 0.0 3.2 0.00 0.00 0.00 93 1020.7
20260507004026 10 0 0.0 3.2 0.00 0.00 0.00 94 1020.7
20260507003522 10 0 0.0 3.2 0.00 0.00 0.00 94 1020.9
20260507003045 10 0 0.0 3.2 0.00 0.00 0.00 93 1020.8
20260507002521 10 0 0.0 3.2 0.00 0.00 0.00 94 1020.8
20260507002018 10 0 0.0 1.6 0.00 0.00 0.00 94 1020.8
20260507001539 10 0 0.0 1.6 0.00 0.00 0.00 94 1020.8
20260507001021 10 0 0.0 6.4 0.00 0.00 0.00 94 1020.7
20260507000521 10 0 1.6 6.4 0.00 0.00 0.00 93 1020.7
20260507000040 10 91 1.6 4.8 0.00 0.00 0.00 94 1020.7
20260506235521 10 112 0.0 3.2 0.00 0.00 0.00 93 1020.7
20260506235020 10 0 0.0 0.0 0.00 0.00 0.00 93 1020.7
20260506234540 10 0 0.0 3.2 0.00 0.00 0.00 93 1020.6
20260506234022 10 0 0.0 3.2 0.00 0.00 0.00 93 1020.6
20260506233521 10 0 0.0 3.2 0.00 0.00 0.00 93 1020.4
20260506233038 11 0 0.0 3.2 0.00 0.00 0.00 93 1020.5
20260506232517 11 0 0.0 3.2 0.00 0.00 0.00 93 1020.5
20260506232018 11 186 0.0 3.2 0.00 0.00 0.00 92 1020.5
20260506231550 11 0 0.0 6.4 0.00 0.00 0.00 92 1020.6
20260506231022 11 0 0.0 6.4 0.00 0.00 0.00 93 1020.4
20260506230518 10 0 0.0 3.2 0.00 0.00 0.00 92 1020.5
20260506230054 11 0 0.0 4.8 0.00 0.00 0.00 92 1020.6
20260506225525 11 184 0.0 4.8 0.00 0.00 0.00 92 1020.6
20260506225021 11 161 0.0 3.2 0.00 0.00 0.00 92 1020.7
20260506224539 11 0 0.0 6.4 0.00 0.00 0.00 92 1020.7
20260506224021 11 200 1.6 6.4 0.00 0.00 0.00 92 1020.7
20260506223517 11 0 0.0 6.4 0.00 0.00 0.00 92 1020.7
20260506223050 11 0 0.0 4.8 0.00 0.00 0.00 92 1020.7
20260506222521 11 0 0.0 6.4 0.00 0.00 0.00 93 1020.8
20260506222020 11 101 0.0 6.4 0.00 0.00 0.00 92 1020.8
20260506221535 11 0 0.0 4.8 0.00 0.00 0.00 93 1020.8
20260506221019 11 94 1.6 4.8 0.00 0.00 0.00 92 1020.8
20260506220521 11 0 0.0 4.8 0.00 0.00 0.00 91 1020.8
20260506220036 11 143 0.0 8.0 0.00 0.00 0.00 91 1020.7
20260506215527 11 0 0.0 8.0 0.00 0.00 0.00 90 1020.7
20260506215021 11 0 0.0 4.8 0.00 0.00 0.00 90 1020.8
20260506214539 11 106 0.0 4.8 0.00 0.00 0.00 89 1020.7
20260506214018 11 238 1.6 4.8 0.00 0.00 0.00 89 1020.6
20260506213525 11 0 1.6 8.0 0.00 0.00 0.00 88 1020.7
20260506213059 11 0 0.0 8.0 0.00 0.00 0.00 88 1020.7
20260506212518 11 174 1.6 11.3 0.00 0.00 0.00 88 1020.7
20260506212021 11 0 1.6 11.3 0.00 0.00 0.00 88 1020.7
20260506211547 12 209 0.0 8.0 0.00 0.00 0.00 88 1020.7
20260506211021 12 180 1.6 8.0 0.00 0.00 0.00 88 1020.8
20260506210521 12 207 1.6 9.7 0.00 0.00 0.00 87 1020.7
20260506210036 12 167 3.2 9.7 0.00 0.00 0.00 88 1020.6
20260506205522 11 114 1.6 9.7 0.00 0.00 0.00 88 1020.4
20260506205021 12 129 1.6 11.3 0.00 0.00 0.00 87 1020.5
20260506204548 12 144 1.6 11.3 0.00 0.00 0.00 87 1020.5
20260506204018 12 108 3.2 11.3 0.00 0.00 0.00 87 1020.3
20260506203518 12 113 3.2 11.3 0.00 0.00 0.00 86 1020.3
20260506203045 12 101 1.6 11.3 0.00 0.00 0.00 86 1020.3
20260506202520 12 125 1.6 9.7 0.00 0.00 0.00 86 1020.2
20260506202024 12 86 0.0 9.7 0.00 0.00 0.00 85 1020.3
20260506201553 12 113 3.2 9.7 0.00 0.00 0.00 84 1020.2
20260506201021 13 85 0.0 11.3 0.00 0.00 0.00 84 1020.2
20260506200517 12 0 6.4 11.3 0.00 0.00 0.00 85 1020.1
20260506200035 13 105 3.2 9.7 0.00 0.00 0.00 84 1020.1
20260506195521 13 0 0.0 11.3 0.00 0.00 0.00 84 1020.1
20260506195023 12 113 0.0 11.3 0.00 0.00 0.00 86 1020.1
20260506194555 12 96 3.2 11.3 0.00 0.00 0.00 85 1020.1
20260506194022 12 103 1.6 9.7 0.00 0.00 0.00 87 1020.1
20260506193522 12 100 1.6 11.3 0.00 0.00 0.00 86 1020.1
20260506193041 12 134 3.2 11.3 0.00 0.00 0.00 85 1020.2
20260506192522 12 0 0.0 9.7 0.00 0.00 0.00 86 1020.2
20260506192023 12 115 1.6 9.7 0.00 0.00 0.00 85 1020.0
20260506191546 12 193 3.2 9.7 0.00 0.00 0.00 85 1020.0
20260506191025 13 77 1.6 8.0 0.00 0.00 0.00 85 1020.1
20260506190529 13 190 0.0 8.0 0.00 0.00 0.00 85 1020.1
20260506190038 13 186 1.6 9.7 0.00 0.00 0.00 83 1020.0
20260506185524 13 255 1.6 9.7 0.00 0.00 0.00 84 1020.0
20260506185023 13 115 1.6 9.7 0.00 0.00 0.00 84 1019.8
20260506184543 13 101 3.2 9.7 0.00 0.00 0.00 85 1019.8
20260506184022 12 116 3.2 9.7 0.00 0.00 0.00 86 1019.8
20260506183522 12 0 1.6 11.3 0.00 0.00 0.00 88 1019.7
20260506183057 12 101 1.6 11.3 0.00 0.00 0.00 88 1019.6
20260506182521 12 98 4.8 11.3 0.00 0.00 0.00 88 1019.8
20260506182022 11 0 1.6 9.7 0.00 0.00 0.00 89 1019.8
20260506181543 11 117 1.6 9.7 0.00 0.00 0.00 90 1019.8
20260506181023 11 0 3.2 9.7 0.00 0.00 0.00 89 1019.8
20260506180521 11 115 1.6 6.4 0.00 0.00 0.00 90 1019.9
20260506180047 11 100 3.2 6.4 0.00 0.00 0.00 90 1020.1
20260506175522 11 0 0.0 6.4 0.00 0.00 0.00 89 1020.1
20260506175022 11 203 0.0 6.4 0.00 0.00 0.00 90 1020.0
20260506174540 11 0 1.6 6.4 0.00 0.00 0.00 89 1020.0
20260506174023 11 122 1.6 6.4 0.00 0.00 0.00 89 1020.1
20260506173524 11 96 0.0 6.4 0.00 0.00 0.00 89 1020.1
20260506173053 11 0 0.0 9.7 0.00 0.00 0.00 88 1020.0
20260506172522 11 0 0.0 9.7 0.00 0.00 0.00 89 1019.8
20260506172021 11 105 0.0 9.7 0.00 0.00 0.00 88 1019.8
20260506171543 11 95 1.6 4.8 0.00 0.00 0.00 87 1019.8
20260506171026 12 0 0.0 6.4 0.00 0.00 0.00 89 1019.8
20260506170525 11 96 1.6 6.4 0.00 0.00 0.00 89 1019.6
20260506165521 11 117 0.0 9.7 0.00 0.00 0.00 90 1019.4
20260506165023 11 106 1.6 9.7 0.00 0.00 0.00 91 1019.4
20260506164539 11 101 1.6 6.4 0.00 0.00 0.00 91 1019.5
20260506164023 11 108 0.0 6.4 0.00 0.00 0.00 90 1019.5
20260506163522 11 100 0.0 6.4 0.00 0.00 0.00 91 1019.4
20260506163035 11 108 0.0 4.8 0.00 0.00 0.00 91 1019.4
20260506162523 11 0 0.0 4.8 0.00 0.00 0.00 91 1019.6
20260506162026 10 0 0.0 4.8 0.00 0.00 0.00 92 1019.5
20260506161539 11 115 0.0 4.8 0.00 0.00 0.00 91 1019.5
20260506161021 11 0 0.0 3.2 0.00 0.00 0.00 91 1019.7
20260506160525 11 206 0.0 4.8 0.00 0.00 0.00 92 1019.6
20260506160040 11 0 0.0 4.8 0.00 0.00 0.00 92 1019.6
20260506155525 11 107 1.6 3.2 0.00 0.00 0.00 92 1019.6
20260506155021 10 0 0.0 6.4 0.00 0.00 0.00 92 1019.5
20260506154544 10 0 0.0 6.4 0.00 0.00 0.00 93 1019.3
20260506154023 10 116 1.6 9.7 0.00 0.00 0.00 92 1019.4
20260506153522 10 104 3.2 9.7 0.00 0.00 0.00 92 1019.5
20260506153039 10 112 1.6 6.4 0.00 0.00 0.00 92 1019.7
20260506152522 10 107 0.0 4.8 0.00 0.00 0.00 92 1019.7
20260506152026 11 112 0.0 3.2 0.00 0.00 0.00 92 1019.7
20260506151537 11 0 0.0 0.0 0.00 0.00 0.00 92 1019.7
20260506151021 11 0 0.0 0.0 0.00 0.00 0.00 92 1019.8
20260506150521 11 0 0.0 0.0 0.00 0.00 0.00 92 1019.6
20260506150035 10 0 0.0 0.0 0.00 0.00 0.00 92 1019.6
20260506145524 10 0 0.0 0.0 0.00 0.00 0.00 93 1019.3
20260506145022 10 0 0.0 0.0 0.00 0.00 0.00 93 1019.3
20260506144555 10 0 0.0 6.4 0.00 0.00 0.00 93 1019.2
20260506144024 10 0 0.0 6.4 0.00 0.00 0.00 93 1019.3
20260506143523 10 273 1.6 6.4 0.00 0.00 0.00 93 1019.3
20260506143041 10 0 0.0 4.8 0.00 0.00 0.00 93 1019.3
20260506142521 10 101 0.0 4.8 0.00 0.00 0.00 93 1019.4
20260506142026 10 200 0.0 4.8 0.00 0.00 0.00 93 1019.6
20260506141539 10 195 1.6 4.8 0.00 0.00 0.00 93 1019.5
20260506141026 10 94 1.6 4.8 0.00 0.00 0.00 92 1019.4
20260506140522 10 0 0.0 0.0 0.00 0.00 0.00 93 1019.7
20260506140043 10 0 0.0 0.0 0.00 0.00 0.00 93 1019.5
20260506135521 10 0 0.0 0.0 0.00 0.00 0.00 93 1019.5
20260506135021 10 0 0.0 6.4 0.00 0.00 0.00 93 1019.3
20260506134549 10 0 0.0 6.4 0.00 0.00 0.00 93 1019.3
20260506134021 10 269 1.6 6.4 0.00 0.00 0.00 93 1019.1
20260506133526 10 0 0.0 6.4 0.00 0.00 0.00 93 1018.9
20260506133043 10 0 0.0 6.4 0.00 0.00 0.00 93 1019.0
20260506132523 10 170 0.0 3.2 0.00 0.00 0.00 93 1019.1
20260506132025 10 0 0.0 3.2 0.00 0.00 0.00 93 1019.1
20260506131538 10 0 0.0 1.6 0.00 0.00 0.00 93 1019.1
20260506131023 10 0 0.0 3.2 0.00 0.00 0.00 94 1018.9
20260506130523 10 0 0.0 4.8 0.00 0.00 0.00 94 1018.9
20260506130040 10 0 0.0 6.4 0.00 0.00 0.00 93 1018.8
20260506125522 10 123 0.0 6.4 0.00 0.00 0.00 93 1018.7
20260506125023 10 112 0.0 6.4 0.00 0.00 0.00 93 1018.8
20260506124538 10 0 0.0 0.0 0.00 0.00 0.00 93 1018.6
20260506124021 10 0 0.0 0.0 0.00 0.00 0.00 93 1018.7
20260506123522 10 0 0.0 0.0 0.00 0.00 0.00 94 1018.7
20260506123045 10 0 0.0 0.0 0.00 0.00 0.00 94 1018.6
20260506122523 10 0 0.0 0.0 0.00 0.00 0.00 94 1018.5
20260506122022 10 0 0.0 0.0 0.00 0.00 0.00 94 1018.5
20260506121545 10 0 0.0 3.2 0.00 0.00 0.00 93 1018.4
20260506121022 10 0 0.0 3.2 0.00 0.00 0.00 94 1018.4
20260506120522 10 0 0.0 4.8 0.00 0.00 0.00 93 1018.3
20260506120044 10 0 0.0 4.8 0.00 0.00 0.00 93 1018.3
20260506115522 10 109 1.6 4.8 0.00 0.00 0.00 93 1018.4
20260506115022 10 94 3.2 6.4 0.00 0.00 0.00 93 1018.3
20260506114538 10 136 1.6 6.4 0.00 0.00 0.00 93 1018.3
20260506114023 10 160 1.6 6.4 0.00 0.00 0.00 92 1018.3
20260506113522 10 130 1.6 6.4 0.00 0.00 0.00 92 1018.3
20260506113044 10 0 0.0 4.8 0.00 0.00 0.00 92 1018.3
20260506112521 11 194 0.0 4.8 0.00 0.00 0.00 91 1018.3
20260506112022 11 0 0.0 6.4 0.00 0.00 0.00 91 1018.3
20260506111541 11 0 1.6 6.4 0.00 0.00 0.00 91 1018.4
20260506111022 11 101 1.6 6.4 0.00 0.00 0.00 91 1018.3
20260506110522 11 96 1.6 6.4 0.00 0.00 0.00 91 1018.3
20260506110042 11 94 1.6 6.4 0.00 0.00 0.00 91 1018.1
20260506105522 11 105 0.0 3.2 0.00 0.00 0.00 91 1018.1
20260506105021 11 0 0.0 0.0 0.00 0.00 0.00 91 1018.0
20260506104559 11 0 0.0 0.0 0.00 0.00 0.00 91 1018.1
20260506104023 11 0 0.0 0.0 0.00 0.00 0.00 91 1018.0
20260506103522 11 0 0.0 0.0 0.00 0.00 0.00 91 1017.9
20260506103047 11 0 0.0 0.0 0.00 0.00 0.00 91 1017.8
20260506102522 11 0 0.0 3.2 0.00 0.00 0.00 91 1017.8
20260506102021 11 0 0.0 3.2 0.00 0.00 0.00 91 1017.6
20260506101539 11 0 1.6 3.2 0.00 0.00 0.00 91 1017.6
20260506101026 11 0 0.0 3.2 0.00 0.00 0.00 91 1017.5
20260506100524 11 0 0.0 3.2 0.00 0.00 0.00 91 1017.5
20260506100043 11 0 0.0 3.2 0.00 0.00 0.00 91 1017.4
20260506095521 11 0 0.0 0.0 0.00 0.00 0.00 92 1017.4
20260506095020 11 0 0.0 1.6 0.00 0.00 0.00 92 1017.4
20260506094540 11 0 0.0 1.6 0.00 0.00 0.00 92 1017.4
20260506094023 11 0 0.0 1.6 0.00 0.00 0.00 92 1017.4
20260506093523 11 0 0.0 3.2 0.00 0.00 0.00 92 1017.3
20260506093039 11 0 0.0 4.8 0.00 0.00 0.00 92 1017.3
20260506092523 11 0 0.0 9.7 0.00 0.00 0.00 91 1017.3
20260506092022 11 107 1.6 9.7 0.00 0.00 0.00 91 1017.2
20260506091539 11 105 1.6 6.4 0.00 0.00 0.00 92 1017.3
20260506091022 11 136 1.6 9.7 0.00 0.00 0.00 92 1017.2
20260506090522 11 142 3.2 9.7 0.00 0.00 0.00 92 1017.2
20260506090045 11 105 1.6 6.4 0.00 0.00 0.00 92 1017.2
20260506085522 11 113 3.2 6.4 0.00 0.00 0.00 92 1017.2
20260506085022 10 121 3.2 6.4 0.00 0.00 0.00 93 1017.3
20260506084558 10 115 1.6 6.4 0.00 0.00 0.00 93 1017.2
20260506084022 10 119 0.0 6.4 0.00 0.00 0.00 93 1017.1
20260506083523 10 116 1.6 4.8 0.00 0.00 0.00 93 1017.2
20260506083041 10 105 0.0 4.8 0.00 0.00 0.00 93 1017.2
20260506082520 10 121 1.6 4.8 0.00 0.00 0.00 94 1017.2
20260506082027 10 117 0.0 4.8 0.00 0.00 0.00 94 1017.2
20260506081541 10 110 0.0 9.7 0.00 0.00 0.00 94 1017.2
20260506081024 10 99 0.0 9.7 0.00 0.00 0.00 94 1017.2
20260506080523 10 105 1.6 4.8 0.00 0.00 0.00 94 1017.2
20260506073518 10 0 0.0 0.0 0.00 0.00 0.00 94 1017.2
20260506073035 10 0 0.0 0.0 0.00 0.00 0.00 94 1017.1
20260506072518 10 0 0.0 0.0 0.00 0.00 0.00 94 1017.1
20260506072018 10 0 0.0 3.2 0.00 0.00 0.00 94 1017.1
20260506071540 10 0 0.0 3.2 0.00 0.00 0.00 94 1017.1
20260506071022 10 112 0.0 3.2 0.00 0.00 0.00 95 1017.1
20260506070521 9 0 0.0 3.2 0.00 0.00 0.00 95 1017.1
20260506062020 10 0 0.0 0.0 0.00 0.00 0.00 94 1016.7
20260506061547 10 0 0.0 3.2 0.00 0.00 0.00 94 1016.5
20260506061019 10 0 0.0 3.2 0.00 0.00 0.00 94 1016.7
20260506060523 10 0 0.0 3.2 0.00 0.00 0.00 94 1016.6
20260506051020 10 0 0.0 1.6 0.00 0.00 0.00 94 1016.5
20260506050529 10 0 0.0 1.6 0.00 0.00 0.00 93 1016.6
20260506045018 10 0 0.0 0.0 0.00 0.00 0.00 93 1016.5
20260506044547 10 0 0.0 0.0 0.00 0.00 0.00 93 1016.4
20260506044018 10 0 0.0 0.0 0.00 0.00 0.00 93 1016.4
20260506043522 10 0 0.0 0.0 0.00 0.00 0.00 93 1016.4